Theta_e
300 299 298 298 298 299 307 308 308 309 309 310 309 309 309 303 306 306 305 306 307 306 302 301 301 302 301 303 304 304 303 303 304 304 304 305 304 305 306 305 306 305 306 309 309
300 299 298 298 298 300 306 308 308 307 309 309 308 308 308 301 306 304 302 307 307 306 303 302 302 302 302 302 303 304 303 303 304 303 303 303 303 303 304 303 304 304 305 305 304
299 298 298 297 297 301 307 307 307 309 309 307 309 308 304 305 306 303 302 307 307 306 303 302 302 302 302 302 303 303 303 303 302 302 303 303 303 303 302 302 302 302 303 304 303
299 298 298 297 297 300 305 306 308 307 306 306 306 303 300 306 305 302 301 302 302 302 301 302 302 303 302 302 302 302 302 302 302 302 302 302 303 302 302 302 302 302 303 303 303
299 298 298 297 297 298 300 302 306 305 301 303 301 300 303 303 302 303 299 300 301 301 301 302 302 302 302 302 302 302 302 302 302 301 301 301 301 302 302 302 302 302 302 302 302
299 298 298 297 297 297 298 298 304 300 300 300 300 301 304 303 301 303 299 300 299 299 300 301 301 301 301 302 302 302 302 302 302 302 302 302 302 302 303 303 303 302 302 302 302
299 299 298 297 297 297 296 298 298 300 300 299 302 304 303 301 302 299 298 299 299 298 300 300 300 301 302 302 302 302 302 302 302 302 302 303 302 303 303 303 303 303 303 303 303
300 299 298 298 297 297 296 297 298 300 299 300 301 304 302 300 300 299 299 299 298 299 299 300 301 301 301 302 301 302 302 304 304 302 302 302 304 304 304 303 303 303 303 303 303
300 299 298 298 297 297 296 297 300 299 300 301 304 304 301 298 299 298 298 298 298 300 300 300 301 302 302 303 304 305 306 304 303 302 303 302 303 303 303 303 303 303 303 303 303
300 299 299 298 298 296 297 297 298 300 299 299 300 304 301 299 298 298 298 298 299 300 301 301 301 303 304 303 305 303 303 302 303 303 303 304 303 303 303 303 303 303 303 303 303
300 299 299 298 298 296 301 301 304 306 301 302 300 300 299 298 298 299 297 299 300 301 301 301 303 303 301 301 301 301 303 303 303 302 303 303 303 303 303 302 302 302 303 303 303
300 300 299 298 297 296 301 303 301 300 303 299 299 300 299 297 299 299 298 299 300 301 300 302 302 300 300 301 300 299 300 301 301 301 303 302 301 301 301 300 299 298 299 299 301
301 300 299 298 297 299 298 300 299 299 305 299 298 299 297 298 298 298 298 298 299 300 299 301 300 299 300 300 300 299 299 301 300 298 298 298 300 302 300 299 296 295 296 296 297
301 300 299 298 301 298 299 297 299 300 309 302 299 299 298 299 299 298 297 298 300 299 299 300 299 299 300 300 299 300 298 297 296 298 301 304 308 300 297 294 293 293 293 294 295
301 300 300 298 300 299 296 297 299 301 330 300 299 296 298 299 297 299 298 298 299 299 299 300 299 298 300 299 298 299 296 295 296 298 299 300 304 298 294 292 292 291 291 292 293
301 301 300 302 300 296 297 299 301 314 320 301 299 298 299 299 298 299 299 299 298 299 300 299 298 298 298 298 296 295 296 299 303 303 306 306 305 297 293 292 290 288 287 289 301
301 301 299 298 302 295 298 301 315 319 306 304 298 298 298 298 299 299 300 300 299 300 300 300 299 298 298 298 295 297 297 303 304 305 305 304 301 296 291 289 288 286 286 296 303
301 300 299 299 296 295 298 311 318 303 304 296 298 298 299 298 299 299 300 301 299 298 300 301 302 298 298 297 296 295 295 297 301 302 303 300 299 299 289 287 286 284 286 293 297
301 301 301 300 294 295 306 317 313 306 296 297 299 303 304 299 299 301 301 300 298 298 299 299 301 298 298 297 294 294 294 293 296 298 301 300 295 297 288 285 284 283 285 289 293
302 301 300 296 293 297 309 309 302 295 296 297 303 299 302 300 301 301 301 299 298 298 297 298 299 299 298 297 294 292 292 296 297 299 301 300 295 289 285 284 283 283 284 287 289
300 304 299 293 293 306 309 306 295 293 295 298 300 300 299 298 298 300 301 299 297 298 297 299 298 301 299 298 294 292 292 293 294 295 299 301 295 286 284 283 282 282 283 285 287
301 306 296 292 305 302 306 298 293 295 295 297 297 298 299 298 299 299 300 299 297 297 298 298 298 303 299 298 294 291 290 292 297 295 293 295 295 286 283 282 282 281 282 284 285
308 306 296 296 313 306 294 296 296 295 296 297 298 298 295 297 299 296 299 297 296 298 298 298 301 305 303 298 295 293 291 290 291 292 292 296 297 287 283 281 280 280 280 282 282
302 307 302 300 299 303 301 300 297 295 295 296 297 297 295 294 294 297 298 297 296 297 296 296 299 300 301 299 296 293 291 290 290 295 292 289 288 285 281 280 279 278 279 280 280
301 304 296 306 305 299 300 298 298 297 295 296 297 298 297 297 295 294 296 298 297 296 296 297 302 296 297 297 297 294 291 288 288 287 292 288 287 284 280 279 277 277 278 278 279
302 302 294 297 297 299 298 299 297 295 296 296 297 298 296 296 299 298 296 298 298 297 297 296 303 296 297 296 295 300 293 291 288 287 287 288 288 284 280 278 276 276 277 276 277
294 293 304 296 298 301 303 298 297 296 295 294 296 295 293 295 295 295 295 295 295 295 296 297 299 301 307 300 298 301 296 291 290 287 286 290 286 284 280 277 276 275 276 276 276
Wind_Speed
10 12 14 15 16 17 18 18 18 17 16 16 15 14 12 12 6 3 6 4 8 13 15 15 12 12 9 5 4 3 7 14 20 20 21 15 9 11 9 14 16 19 20 19 21
11 13 15 17 18 19 19 19 18 18 18 17 16 11 9 6 4 7 2 5 8 13 12 12 11 12 6 7 4 7 10 15 14 12 15 15 16 16 17 18 21 18 18 23 24
12 14 16 18 21 21 21 20 18 18 18 17 12 6 8 1 3 4 6 8 10 11 12 11 11 8 7 5 8 6 12 15 16 14 15 18 20 17 19 23 21 22 17 15 17
14 15 17 20 23 23 22 19 19 18 17 10 5 4 2 2 2 3 9 12 13 12 10 10 7 8 7 8 5 10 15 16 17 17 17 20 19 22 21 26 21 22 22 22 22
15 17 19 21 24 25 22 20 20 19 8 4 3 1 3 4 3 4 16 13 12 9 10 9 9 8 9 8 11 16 18 18 17 17 19 20 23 25 25 23 23 23 24 24 23
15 18 20 23 25 25 20 22 22 7 3 4 2 2 2 1 3 6 15 11 11 12 13 10 7 10 11 12 12 11 16 18 18 20 22 23 24 23 21 21 21 22 24 22 22
15 18 21 24 27 23 23 26 8 4 3 3 3 3 3 5 5 13 13 12 9 18 14 15 10 8 7 11 6 11 18 20 20 20 16 17 18 21 22 18 17 17 18 19 20
15 18 21 25 27 20 25 16 3 2 4 1 5 1 2 1 8 12 16 16 19 13 7 7 7 9 10 10 15 18 18 15 6 8 14 12 21 21 15 12 15 17 16 17 18
15 18 21 25 28 19 26 3 2 3 1 3 3 3 3 2 18 13 17 19 20 2 3 2 4 5 4 9 13 10 10 16 22 17 17 11 16 15 15 19 21 20 21 18 18
15 17 20 25 27 18 21 2 2 4 3 3 2 3 3 10 15 12 23 20 4 8 4 2 3 7 5 6 10 17 20 21 22 19 16 16 22 22 18 19 19 16 16 17 16
15 17 20 24 22 16 14 3 4 3 11 5 3 3 7 15 3 18 27 18 7 4 8 5 5 9 14 13 14 15 19 24 24 23 14 15 16 17 14 13 14 16 16 14 15
15 17 20 24 15 12 10 5 3 3 1 1 3 3 4 8 5 19 27 11 7 9 13 2 5 9 9 10 14 22 24 23 24 16 8 14 19 17 2 4 12 15 14 15 15
14 16 19 22 8 8 11 6 2 1 3 2 1 3 5 7 5 16 20 11 8 10 11 3 6 10 10 15 19 21 23 17 20 23 25 19 20 4 5 9 18 17 16 16 16
14 15 19 17 2 4 3 6 0 0 2 8 4 4 8 4 2 14 16 8 8 11 10 3 8 12 14 16 22 20 17 25 25 13 5 3 1 13 13 19 21 21 22 21 19
13 14 17 11 5 3 6 2 2 2 2 8 4 2 5 9 9 16 16 8 10 12 5 7 11 16 13 20 24 16 27 23 21 14 9 14 5 9 16 26 29 29 28 25 21
12 14 16 6 2 3 2 5 3 2 3 5 3 10 10 10 6 12 14 14 1 5 7 7 8 6 11 22 19 26 21 13 6 5 3 11 4 12 14 21 27 30 31 32 13
12 14 13 7 2 7 3 3 3 5 4 8 6 9 10 10 6 13 13 19 15 10 12 13 0 10 16 21 10 20 19 4 2 4 5 10 7 8 21 21 22 26 28 24 18
12 13 10 4 8 2 4 2 7 1 3 3 6 10 6 11 5 13 10 14 16 13 9 8 4 12 11 10 17 15 11 5 6 5 5 9 7 4 22 20 21 20 20 25 23
12 8 3 5 8 1 3 5 2 1 2 7 7 2 4 6 7 9 12 11 9 12 8 7 4 7 6 10 20 11 10 10 5 7 3 4 7 7 28 25 27 28 29 27 23
5 5 3 6 2 3 3 3 2 1 1 1 4 3 4 8 10 9 12 6 9 13 6 4 7 4 6 7 19 8 10 4 4 7 5 5 5 9 25 24 26 28 27 25 23
3 2 2 6 1 1 3 3 2 2 0 2 1 1 1 4 6 6 8 2 10 12 8 3 2 11 4 12 20 13 7 5 2 5 5 6 3 7 16 18 19 20 22 21 21
1 2 1 1 2 1 3 4 2 3 2 2 1 1 0 2 4 3 4 4 9 9 7 4 4 6 2 5 10 20 12 5 4 5 3 4 4 11 16 15 16 18 20 20 20
2 2 2 2 2 2 1 2 2 3 3 3 2 1 1 1 3 2 3 3 7 10 6 7 5 7 0 4 11 9 19 8 1 3 7 5 3 13 15 16 17 18 19 18 20
1 1 3 3 1 5 4 3 4 1 2 2 1 2 2 2 4 5 4 1 5 8 5 3 3 4 6 1 4 12 16 15 2 2 3 3 13 16 16 16 17 17 19 17 17
1 2 0 1 0 3 2 5 4 3 3 4 3 5 3 2 2 4 3 4 4 6 2 3 2 2 3 4 2 10 13 12 10 6 3 8 7 13 13 14 13 13 15 18 20
3 3 1 2 2 5 2 5 6 3 7 3 3 3 5 4 3 2 3 3 3 5 4 3 1 2 3 6 7 9 13 11 7 7 4 6 4 10 7 8 14 16 15 16 15
3 2 1 1 2 2 3 5 6 6 4 1 4 3 3 6 6 5 6 7 5 4 4 4 2 2 6 3 4 1 7 7 5 6 2 5 6 8 8 12 12 14 13 13 13
Wind_Direction
1 358 354 348 346 344 340 335 332 328 326 324 327 329 330 337 46 60 47 351 340 331 339 324 311 321 290 271 267 275 252 260 265 269 275 276 276 278 275 271 279 280 279 283 297
356 355 351 344 344 341 339 334 332 329 326 325 320 317 323 342 93 72 346 333 328 324 331 333 325 327 289 258 236 236 248 258 282 300 294 284 276 277 275 271 272 271 265 271 283
351 353 347 344 343 341 340 334 331 329 326 321 321 317 325 72 170 42 327 315 315 320 316 308 304 302 277 255 229 229 250 276 283 278 274 276 275 276 274 271 271 276 289 302 292
347 348 345 345 343 341 339 334 331 326 321 324 324 333 81 109 345 7 335 318 308 314 308 305 290 288 274 266 268 270 259 273 284 289 279 274 282 274 268 271 280 281 284 282 280
343 345 343 345 344 346 341 336 330 324 338 349 349 39 111 132 67 346 339 322 321 319 313 305 290 293 272 299 294 272 277 283 286 285 277 279 271 274 274 281 277 276 275 276 277
341 341 342 344 345 347 342 336 329 348 33 4 6 47 92 160 320 332 335 337 350 330 302 289 290 306 289 280 276 306 301 292 288 282 280 279 278 277 272 268 271 267 269 272 272
337 338 342 342 347 348 340 337 347 21 12 6 27 69 120 56 359 337 337 329 324 318 296 295 287 272 302 292 341 298 290 288 278 271 266 285 279 260 261 265 263 263 268 270 267
332 338 342 341 347 347 341 342 11 24 337 29 35 58 80 42 354 347 340 331 321 313 268 280 270 268 271 289 282 272 270 280 264 264 296 245 279 285 286 282 285 285 275 275 271
330 337 340 342 344 348 343 5 31 27 3 19 16 283 77 325 351 349 345 331 327 359 315 273 249 269 248 271 292 282 282 302 297 296 290 252 284 292 302 295 291 280 274 274 273
328 334 340 340 344 352 343 12 13 2 346 342 288 240 75 346 340 337 349 342 321 321 182 258 271 280 236 329 313 310 301 298 296 306 291 275 277 285 300 291 291 290 285 281 274
325 332 339 340 343 354 354 312 242 174 39 43 351 338 331 338 340 356 355 339 330 240 357 2 297 11 345 322 313 302 290 286 287 294 289 273 277 290 327 14 5 354 338 311 285
320 331 339 339 342 353 15 48 37 314 117 133 303 295 315 338 325 6 356 8 347 12 350 5 43 340 329 306 311 316 305 295 293 320 313 291 288 297 95 44 26 360 347 334 320
318 330 337 340 344 15 55 54 339 330 257 134 34 342 342 345 5 1 8 336 3 356 359 8 340 324 306 314 325 323 305 316 317 317 304 285 278 207 4 27 1 349 340 331 319
315 327 335 346 10 359 34 353 59 216 191 353 5 35 347 332 119 17 12 4 7 346 348 339 336 335 316 315 332 315 334 311 301 299 271 4 49 40 12 358 351 348 341 329 314
311 323 333 348 318 22 314 335 156 246 9 356 17 338 32 44 321 2 357 4 3 347 331 4 339 344 330 330 331 307 320 306 288 264 265 256 231 19 16 358 350 346 339 326 307
305 316 329 337 357 338 352 138 194 51 8 5 2 359 6 19 16 350 359 23 47 327 300 300 301 317 327 331 330 337 322 297 279 184 167 28 252 38 15 354 344 340 336 327 343
298 312 319 318 327 326 154 201 22 65 1 335 336 342 333 354 352 4 355 30 31 347 6 327 0 345 5 337 340 346 349 345 64 42 34 358 67 66 12 358 350 337 329 335 7
294 309 304 263 324 330 219 262 59 125 303 0 329 330 3 3 12 354 2 20 30 4 302 347 333 8 4 17 343 346 1 14 344 3 343 31 10 88 12 355 348 339 338 1 4
300 302 261 253 329 201 260 49 166 216 359 326 310 314 1 358 343 354 25 17 30 25 1 334 294 0 43 358 12 334 5 312 289 221 264 28 8 148 348 351 350 354 357 357 359
302 287 233 306 326 237 70 128 142 57 36 334 354 24 344 330 353 11 16 26 359 15 7 343 295 6 24 329 21 11 1 16 334 352 21 68 56 340 346 343 345 351 349 350 355
290 287 221 336 83 43 98 136 184 144 111 316 359 16 314 321 324 348 359 32 10 353 336 289 236 319 344 26 27 14 21 354 261 14 336 329 47 5 349 346 344 342 346 350 355
252 267 198 131 68 44 103 133 175 154 173 238 248 98 149 334 285 305 321 341 12 352 331 28 287 295 38 156 76 37 14 358 342 5 18 271 63 31 6 354 352 347 351 353 359
236 280 352 89 144 97 138 112 184 148 194 208 210 177 85 246 289 249 310 17 6 7 3 339 353 322 95 172 18 27 11 5 65 278 27 333 43 30 5 360 1 359 354 357 3
259 293 345 56 335 130 149 151 154 155 206 221 194 158 126 251 220 299 295 326 4 11 359 289 10 38 64 51 348 5 5 14 4 41 319 23 310 0 -0 353 356 359 0 2 12
339 233 325 187 294 117 99 151 137 183 227 215 211 233 162 268 256 243 280 305 126 11 36 0 338 282 232 252 29 38 13 15 49 24 28 319 344 5 354 355 351 2 10 7 11
172 155 166 79 138 128 202 202 170 171 162 216 221 152 170 221 246 292 327 5 17 342 13 358 352 290 248 216 233 27 29 357 20 35 20 312 356 33 24 3 3 7 17 12 12
175 139 226 145 144 160 206 173 185 154 195 226 202 182 210 241 283 276 280 283 271 317 334 334 327 306 323 345 189 195 22 30 328 33 342 18 333 13 23 29 18 2 9 9 3